| time (UTC) | temp F | wind direction | speed MPH | gust MPH | rain 1hr in | rain 24hr in | rain mn in | humidity % | barometer mb |
| 20260504000003 | 53 | 243 | 5.0 | 16.0 | 0.00 | 0.00 | 0.00 | 31 | 1009.0 |
| 20260503235503 | 53 | 246 | 6.0 | 22.0 | 0.00 | 0.00 | 0.00 | 31 | 1009.0 |
| 20260503235003 | 53 | 256 | 8.0 | 22.0 | 0.00 | 0.00 | 0.00 | 30 | 1009.0 |
| 20260503234714 | 53 | 257 | 7.0 | 22.0 | 0.00 | 0.00 | 0.00 | 30 | 1008.9 |
| 20260503234003 | 53 | 244 | 8.0 | 27.0 | 0.00 | 0.00 | 0.00 | 29 | 1009.0 |
| 20260503233503 | 54 | 248 | 6.0 | 27.0 | 0.00 | 0.00 | 0.00 | 29 | 1008.9 |
| 20260503233003 | 54 | 240 | 4.0 | 15.0 | 0.00 | 0.00 | 0.00 | 29 | 1009.0 |
| 20260503232503 | 54 | 262 | 6.0 | 15.0 | 0.00 | 0.00 | 0.00 | 28 | 1008.8 |
| 20260503232212 | 54 | 263 | 5.0 | 15.0 | 0.00 | 0.00 | 0.00 | 27 | 1008.8 |
| 20260503231503 | 54 | 252 | 6.0 | 20.0 | 0.00 | 0.00 | 0.00 | 28 | 1008.7 |
| 20260503231003 | 54 | 246 | 5.0 | 20.0 | 0.00 | 0.00 | 0.00 | 28 | 1008.6 |
| 20260503230503 | 54 | 230 | 4.0 | 12.0 | 0.00 | 0.00 | 0.00 | 28 | 1008.5 |
| 20260503230003 | 54 | 227 | 4.0 | 12.0 | 0.00 | 0.00 | 0.00 | 28 | 1008.6 |
| 20260503225503 | 54 | 217 | 4.0 | 13.0 | 0.00 | 0.00 | 0.00 | 28 | 1008.5 |
| 20260503225003 | 54 | 210 | 3.0 | 13.0 | 0.00 | 0.00 | 0.00 | 28 | 1008.5 |
| 20260503224503 | 55 | 239 | 3.0 | 8.0 | 0.00 | 0.00 | 0.00 | 29 | 1008.7 |
| 20260503224212 | 55 | 243 | 3.0 | 8.0 | 0.00 | 0.00 | 0.00 | 27 | 1008.5 |
| 20260503223713 | 54 | 253 | 4.0 | 14.0 | 0.00 | 0.00 | 0.00 | 26 | 1008.6 |
| 20260503223003 | 55 | 253 | 9.0 | 28.0 | 0.00 | 0.00 | 0.00 | 26 | 1008.4 |
| 20260503222503 | 55 | 260 | 6.0 | 23.0 | 0.00 | 0.00 | 0.00 | 25 | 1008.6 |
| 20260503222003 | 55 | 256 | 4.0 | 17.0 | 0.00 | 0.00 | 0.00 | 25 | 1008.5 |
| 20260503221713 | 55 | 248 | 4.0 | 17.0 | 0.00 | 0.00 | 0.00 | 26 | 1008.5 |
| 20260503221214 | 55 | 237 | 6.0 | 21.0 | 0.00 | 0.00 | 0.00 | 26 | 1008.6 |
| 20260503220713 | 55 | 243 | 5.0 | 21.0 | 0.00 | 0.00 | 0.00 | 27 | 1008.6 |
| 20260503220003 | 55 | 259 | 5.0 | 15.0 | 0.00 | 0.00 | 0.00 | 28 | 1008.4 |
| 20260503215503 | 55 | 252 | 6.0 | 18.0 | 0.00 | 0.00 | 0.00 | 27 | 1008.4 |
| 20260503215003 | 55 | 246 | 6.0 | 19.0 | 0.00 | 0.00 | 0.00 | 27 | 1008.3 |
| 20260503214503 | 56 | 228 | 4.0 | 19.0 | 0.00 | 0.00 | 0.00 | 29 | 1008.3 |
| 20260503214003 | 55 | 220 | 3.0 | 11.0 | 0.00 | 0.00 | 0.00 | 28 | 1008.3 |
| 20260503213713 | 55 | 305 | 3.0 | 13.0 | 0.00 | 0.00 | 0.00 | 29 | 1008.4 |
| 20260503213003 | 55 | 324 | 2.0 | 13.0 | 0.00 | 0.00 | 0.00 | 29 | 1008.3 |
| 20260503212503 | 54 | 276 | 2.0 | 7.0 | 0.00 | 0.00 | 0.00 | 32 | 1008.3 |
| 20260503212003 | 54 | 266 | 2.0 | 9.0 | 0.00 | 0.00 | 0.00 | 33 | 1008.4 |
| 20260503211503 | 54 | 249 | 3.0 | 9.0 | 0.00 | 0.00 | 0.00 | 30 | 1008.4 |
| 20260503211003 | 54 | 229 | 3.0 | 9.0 | 0.00 | 0.00 | 0.00 | 32 | 1008.3 |
| 20260503210503 | 54 | 205 | 3.0 | 11.0 | 0.00 | 0.00 | 0.00 | 31 | 1008.3 |
| 20260503210003 | 54 | 191 | 5.0 | 12.0 | 0.00 | 0.00 | 0.00 | 30 | 1008.4 |
| 20260503205713 | 54 | 186 | 5.0 | 12.0 | 0.00 | 0.00 | 0.00 | 31 | 1008.4 |
| 20260503205003 | 54 | 187 | 5.0 | 12.0 | 0.00 | 0.00 | 0.00 | 32 | 1008.3 |
| 20260503204503 | 54 | 205 | 4.0 | 11.0 | 0.00 | 0.00 | 0.00 | 30 | 1008.4 |
| 20260503204003 | 54 | 211 | 4.0 | 11.0 | 0.00 | 0.00 | 0.00 | 29 | 1008.5 |
| 20260503203503 | 54 | 236 | 4.0 | 12.0 | 0.00 | 0.00 | 0.00 | 31 | 1008.5 |
| 20260503203003 | 54 | 244 | 5.0 | 12.0 | 0.00 | 0.00 | 0.00 | 32 | 1008.6 |
| 20260503202714 | 54 | 259 | 5.0 | 13.0 | 0.00 | 0.00 | 0.00 | 31 | 1008.6 |
| 20260503202003 | 54 | 280 | 2.0 | 13.0 | 0.00 | 0.00 | 0.00 | 31 | 1008.8 |
| 20260503201503 | 54 | 235 | 3.0 | 16.0 | 0.00 | 0.00 | 0.00 | 32 | 1008.9 |
| 20260503201003 | 54 | 215 | 3.0 | 16.0 | 0.00 | 0.00 | 0.00 | 33 | 1008.9 |
| 20260503200503 | 54 | 152 | 2.0 | 8.0 | 0.00 | 0.00 | 0.00 | 30 | 1009.0 |
| 20260503200003 | 54 | 234 | 3.0 | 12.0 | 0.00 | 0.00 | 0.00 | 34 | 1009.0 |
| 20260503195503 | 53 | 257 | 6.0 | 18.0 | 0.00 | 0.00 | 0.00 | 32 | 1009.1 |
| 20260503195003 | 53 | 252 | 4.0 | 18.0 | 0.00 | 0.00 | 0.00 | 33 | 1009.2 |
| 20260503194504 | 54 | 150 | 3.0 | 9.0 | 0.00 | 0.00 | 0.00 | 34 | 1009.4 |
| 20260503194003 | 53 | 190 | 5.0 | 12.0 | 0.00 | 0.00 | 0.00 | 32 | 1009.4 |
| 20260503193503 | 53 | 201 | 6.0 | 17.0 | 0.00 | 0.00 | 0.00 | 33 | 1009.5 |
| 20260503193003 | 54 | 223 | 6.0 | 17.0 | 0.00 | 0.00 | 0.00 | 30 | 1009.5 |
| 20260503192503 | 53 | 213 | 5.0 | 16.0 | 0.00 | 0.00 | 0.00 | 32 | 1009.6 |
| 20260503192213 | 53 | 196 | 5.0 | 15.0 | 0.00 | 0.00 | 0.00 | 35 | 1009.5 |
| 20260503191714 | 53 | 228 | 3.0 | 9.0 | 0.00 | 0.00 | 0.00 | 31 | 1009.7 |
| 20260503191003 | 52 | 241 | 5.0 | 13.0 | 0.00 | 0.00 | 0.00 | 32 | 1009.9 |
| 20260503190503 | 52 | 242 | 6.0 | 17.0 | 0.00 | 0.00 | 0.00 | 32 | 1010.1 |
| 20260503190003 | 52 | 239 | 5.0 | 17.0 | 0.00 | 0.00 | 0.00 | 33 | 1010.1 |
| 20260503185503 | 52 | 225 | 5.0 | 16.0 | 0.00 | 0.00 | 0.00 | 35 | 1010.0 |
| 20260503185003 | 52 | 245 | 7.0 | 17.0 | 0.00 | 0.00 | 0.00 | 33 | 1010.2 |
| 20260503184503 | 52 | 257 | 7.0 | 19.0 | 0.00 | 0.00 | 0.00 | 32 | 1010.3 |
| 20260503184003 | 52 | 249 | 6.0 | 19.0 | 0.00 | 0.00 | 0.00 | 36 | 1010.4 |
| 20260503183503 | 52 | 246 | 7.0 | 17.0 | 0.00 | 0.00 | 0.00 | 32 | 1010.7 |
| 20260503183003 | 51 | 249 | 5.0 | 18.0 | 0.00 | 0.00 | 0.00 | 34 | 1010.6 |
| 20260503182503 | 52 | 253 | 5.0 | 18.0 | 0.00 | 0.00 | 0.00 | 29 | 1010.6 |
| 20260503182003 | 53 | 257 | 5.0 | 15.0 | 0.00 | 0.00 | 0.00 | 32 | 1010.6 |
| 20260503181504 | 53 | 254 | 5.0 | 16.0 | 0.00 | 0.00 | 0.00 | 36 | 1010.4 |
| 20260503181003 | 52 | 251 | 7.0 | 18.0 | 0.00 | 0.00 | 0.00 | 33 | 1010.5 |
| 20260503180503 | 53 | 247 | 6.0 | 18.0 | 0.00 | 0.00 | 0.00 | 32 | 1010.7 |
| 20260503180003 | 52 | 242 | 7.0 | 18.0 | 0.00 | 0.00 | 0.00 | 34 | 1010.6 |
| 20260503175503 | 52 | 248 | 10.0 | 25.0 | 0.00 | 0.00 | 0.00 | 34 | 1010.6 |
| 20260503175003 | 52 | 254 | 9.0 | 27.0 | 0.00 | 0.00 | 0.00 | 32 | 1010.7 |
| 20260503174503 | 52 | 262 | 5.0 | 27.0 | 0.00 | 0.00 | 0.00 | 29 | 1010.7 |
| 20260503174003 | 52 | 270 | 4.0 | 16.0 | 0.00 | 0.00 | 0.00 | 33 | 1010.7 |
| 20260503173503 | 51 | 268 | 7.0 | 23.0 | 0.00 | 0.00 | 0.00 | 33 | 1010.7 |
| 20260503173214 | 51 | 263 | 8.0 | 23.0 | 0.00 | 0.00 | 0.00 | 33 | 1010.7 |
| 20260503172503 | 52 | 265 | 5.0 | 22.0 | 0.00 | 0.00 | 0.00 | 30 | 1010.9 |
| 20260503172003 | 53 | 300 | 3.0 | 14.0 | 0.00 | 0.00 | 0.00 | 34 | 1010.8 |
| 20260503171713 | 52 | 266 | 3.0 | 11.0 | 0.00 | 0.00 | 0.00 | 35 | 1010.8 |
| 20260503171003 | 52 | 236 | 7.0 | 17.0 | 0.00 | 0.00 | 0.00 | 34 | 1010.8 |
| 20260503170503 | 52 | 240 | 6.0 | 17.0 | 0.00 | 0.00 | 0.00 | 33 | 1011.0 |
| 20260503151003 | 46 | 262 | 4.0 | 11.0 | 0.00 | 0.00 | 0.00 | 38 | 1011.9 |
| 20260503150503 | 46 | 268 | 5.0 | 13.0 | 0.00 | 0.00 | 0.00 | 40 | 1012.0 |
| 20260503131212 | 43 | 252 | 4.0 | 12.0 | 0.00 | 0.00 | 0.00 | 45 | 1012.7 |
| 20260503130714 | 42 | 269 | 4.0 | 11.0 | 0.00 | 0.00 | 0.00 | 43 | 1012.7 |
| 20260503120214 | 38 | 267 | 3.0 | 10.0 | 0.00 | 0.00 | 0.00 | 47 | 1012.8 |
| 20260503110503 | 35 | 247 | 3.0 | 7.0 | 0.00 | 0.00 | 0.00 | 59 | 1012.4 |
| 20260503090503 | 33 | 248 | 1.0 | 3.0 | 0.00 | 0.00 | 0.00 | 62 | 1011.9 |
| 20260503081503 | 34 | 260 | 3.0 | 11.0 | 0.00 | 0.00 | 0.00 | 62 | 1012.1 |
| 20260503081003 | 34 | 253 | 3.0 | 9.0 | 0.00 | 0.00 | 0.00 | 62 | 1012.2 |
| 20260503080714 | 34 | 252 | 3.0 | 9.0 | 0.00 | 0.00 | 0.00 | 62 | 1012.1 |
| 20260503072503 | 36 | 261 | 5.0 | 14.0 | 0.00 | 0.00 | 0.00 | 61 | 1012.0 |
| 20260503072003 | 36 | 259 | 4.0 | 11.0 | 0.00 | 0.00 | 0.00 | 60 | 1012.0 |
| 20260503071503 | 36 | 256 | 3.0 | 11.0 | 0.00 | 0.00 | 0.00 | 60 | 1012.0 |
| 20260503071003 | 36 | 255 | 4.0 | 11.0 | 0.00 | 0.00 | 0.00 | 60 | 1012.0 |
| 20260503070503 | 36 | 255 | 3.0 | 13.0 | 0.00 | 0.00 | 0.00 | 60 | 1012.0 |
| 20260503055003 | 36 | 84 | 0.0 | 4.0 | 0.00 | 0.00 | 0.00 | 59 | 1012.2 |
| 20260503054503 | 36 | 122 | 1.0 | 4.0 | 0.00 | 0.00 | 0.00 | 59 | 1012.2 |
| 20260503054003 | 36 | 135 | 2.0 | 5.0 | 0.00 | 0.00 | 0.00 | 59 | 1012.2 |
| 20260503053713 | 36 | 154 | 2.0 | 8.0 | 0.00 | 0.00 | 0.00 | 59 | 1012.3 |
| 20260503053003 | 36 | 210 | 2.0 | 8.0 | 0.00 | 0.00 | 0.00 | 58 | 1012.2 |
| 20260503052503 | 36 | 229 | 2.0 | 7.0 | 0.00 | 0.00 | 0.00 | 59 | 1012.3 |
| 20260503052003 | 36 | 193 | 2.0 | 4.0 | 0.00 | 0.00 | 0.00 | 59 | 1012.5 |
| 20260503051503 | 36 | 195 | 2.0 | 6.0 | 0.00 | 0.00 | 0.00 | 59 | 1012.5 |
| 20260503051003 | 36 | 198 | 2.0 | 6.0 | 0.00 | 0.00 | 0.00 | 59 | 1012.6 |
| 20260503050503 | 36 | 203 | 2.0 | 6.0 | 0.00 | 0.00 | 0.00 | 59 | 1012.8 |
| 20260503050003 | 36 | 220 | 2.0 | 8.0 | 0.00 | 0.00 | 0.00 | 59 | 1012.9 |
| 20260503045503 | 36 | 229 | 1.0 | 8.0 | 0.00 | 0.00 | 0.00 | 59 | 1013.0 |
| 20260503045003 | 37 | 190 | 0.0 | 2.0 | 0.00 | 0.00 | 0.00 | 59 | 1013.0 |
| 20260503044503 | 36 | 182 | 0.0 | 2.0 | 0.00 | 0.00 | 0.00 | 59 | 1013.1 |
| 20260503044003 | 37 | 181 | 1.0 | 5.0 | 0.00 | 0.00 | 0.00 | 59 | 1013.1 |
| 20260503043503 | 37 | 189 | 1.0 | 5.0 | 0.00 | 0.00 | 0.00 | 59 | 1013.1 |
| 20260503043003 | 37 | 201 | 1.0 | 4.0 | 0.00 | 0.00 | 0.00 | 58 | 1013.3 |
| 20260503042503 | 37 | 198 | 1.0 | 4.0 | 0.00 | 0.00 | 0.00 | 58 | 1013.2 |
| 20260503042003 | 37 | 178 | 1.0 | 5.0 | 0.00 | 0.00 | 0.00 | 58 | 1013.3 |
| 20260503041503 | 37 | 177 | 1.0 | 5.0 | 0.00 | 0.00 | 0.00 | 58 | 1013.2 |
| 20260503041003 | 37 | 185 | 1.0 | 3.0 | 0.00 | 0.00 | 0.00 | 58 | 1013.1 |
| 20260503040503 | 37 | 188 | 1.0 | 3.0 | 0.00 | 0.00 | 0.00 | 59 | 1013.1 |
| 20260503040003 | 37 | 188 | 1.0 | 2.0 | 0.00 | 0.00 | 0.00 | 59 | 1013.1 |
| 20260503035503 | 37 | 188 | 1.0 | 2.0 | 0.00 | 0.00 | 0.00 | 58 | 1013.0 |
| 20260503035003 | 37 | 189 | 1.0 | 2.0 | 0.00 | 0.00 | 0.00 | 57 | 1013.0 |
| 20260503034503 | 37 | 189 | 1.0 | 2.0 | 0.00 | 0.00 | 0.00 | 57 | 1013.0 |
| 20260503034003 | 37 | 189 | 0.0 | 2.0 | 0.00 | 0.00 | 0.00 | 57 | 1013.1 |
| 20260503033503 | 37 | 205 | 1.0 | 4.0 | 0.00 | 0.00 | 0.00 | 57 | 1013.0 |
| 20260503033213 | 37 | 206 | 1.0 | 4.0 | 0.00 | 0.00 | 0.00 | 57 | 1013.1 |
| 20260503032503 | 37 | 230 | 0.0 | 2.0 | 0.00 | 0.00 | 0.00 | 57 | 1013.2 |
| 20260503032003 | 37 | 219 | 0.0 | 4.0 | 0.00 | 0.00 | 0.00 | 58 | 1013.3 |
| 20260503031503 | 37 | 209 | 1.0 | 4.0 | 0.00 | 0.00 | 0.00 | 57 | 1013.3 |
| 20260503031003 | 37 | 204 | 2.0 | 5.0 | 0.00 | 0.00 | 0.00 | 57 | 1013.4 |
| 20260503030503 | 37 | 194 | 2.0 | 5.0 | 0.00 | 0.00 | 0.00 | 57 | 1013.3 |
| 20260503030003 | 37 | 210 | 2.0 | 4.0 | 0.00 | 0.00 | 0.00 | 57 | 1013.3 |
| 20260503025503 | 37 | 207 | 2.0 | 6.0 | 0.00 | 0.00 | 0.00 | 57 | 1013.3 |
| 20260503025003 | 37 | 204 | 3.0 | 8.0 | 0.00 | 0.00 | 0.00 | 57 | 1013.3 |
| 20260503024714 | 37 | 200 | 3.0 | 8.0 | 0.00 | 0.00 | 0.00 | 57 | 1013.3 |
| 20260503024003 | 37 | 198 | 3.0 | 6.0 | 0.00 | 0.00 | 0.00 | 56 | 1013.4 |
| 20260503023503 | 37 | 202 | 2.0 | 5.0 | 0.00 | 0.00 | 0.00 | 57 | 1013.4 |
| 20260503023003 | 37 | 188 | 1.0 | 4.0 | 0.00 | 0.00 | 0.00 | 57 | 1013.3 |
| 20260503022503 | 37 | 168 | 2.0 | 4.0 | 0.00 | 0.00 | 0.00 | 58 | 1013.2 |
| 20260503022003 | 37 | 164 | 2.0 | 4.0 | 0.00 | 0.00 | 0.00 | 57 | 1013.4 |
| 20260503021503 | 37 | 169 | 2.0 | 5.0 | 0.00 | 0.00 | 0.00 | 58 | 1013.4 |
| 20260503021003 | 37 | 185 | 1.0 | 5.0 | 0.00 | 0.00 | 0.00 | 58 | 1013.4 |
| 20260503020503 | 37 | 229 | 2.0 | 7.0 | 0.00 | 0.00 | 0.00 | 58 | 1013.4 |
| 20260503020003 | 37 | 215 | 2.0 | 7.0 | 0.00 | 0.00 | 0.00 | 58 | 1013.4 |
| 20260503015503 | 37 | 197 | 2.0 | 4.0 | 0.00 | 0.00 | 0.00 | 59 | 1013.4 |
| 20260503015003 | 37 | 198 | 2.0 | 4.0 | 0.00 | 0.00 | 0.00 | 58 | 1013.3 |
| 20260503014503 | 37 | 222 | 1.0 | 3.0 | 0.00 | 0.00 | 0.00 | 59 | 1013.4 |
| 20260503014003 | 37 | 261 | 1.0 | 3.0 | 0.00 | 0.00 | 0.00 | 59 | 1013.5 |
| 20260503013713 | 37 | 261 | 1.0 | 3.0 | 0.00 | 0.00 | 0.00 | 59 | 1013.5 |
| 20260503013003 | 37 | 246 | 1.0 | 5.0 | 0.00 | 0.00 | 0.00 | 59 | 1013.5 |
| 20260503012503 | 37 | 202 | 1.0 | 5.0 | 0.00 | 0.00 | 0.00 | 58 | 1013.4 |
| 20260503012214 | 37 | 224 | 1.0 | 5.0 | 0.00 | 0.00 | 0.00 | 58 | 1013.4 |
| 20260503011503 | 37 | 249 | 1.0 | 4.0 | 0.00 | 0.00 | 0.00 | 58 | 1013.4 |
| 20260503011003 | 38 | 262 | 1.0 | 3.0 | 0.00 | 0.00 | 0.00 | 58 | 1013.4 |
| 20260503010503 | 38 | 285 | 2.0 | 7.0 | 0.00 | 0.00 | 0.00 | 58 | 1013.3 |
| 20260503010003 | 38 | 202 | 2.0 | 7.0 | 0.00 | 0.00 | 0.00 | 58 | 1013.4 |
| 20260503005503 | 38 | 213 | 2.0 | 6.0 | 0.00 | 0.00 | 0.00 | 57 | 1013.3 |
| 20260503005003 | 38 | 227 | 2.0 | 8.0 | 0.00 | 0.00 | 0.00 | 57 | 1013.2 |
| 20260503004503 | 38 | 241 | 3.0 | 12.0 | 0.00 | 0.01 | 0.00 | 56 | 1013.2 |
| 20260503004003 | 38 | 255 | 4.0 | 12.0 | 0.00 | 0.01 | 0.00 | 56 | 1013.3 |
| 20260503003503 | 38 | 251 | 5.0 | 13.0 | 0.00 | 0.01 | 0.00 | 56 | 1013.2 |
| 20260503003003 | 38 | 244 | 3.0 | 13.0 | 0.00 | 0.01 | 0.00 | 55 | 1013.1 |
| 20260503002503 | 38 | 251 | 3.0 | 11.0 | 0.00 | 0.01 | 0.00 | 55 | 1013.1 |
| 20260503002003 | 38 | 268 | 3.0 | 11.0 | 0.00 | 0.01 | 0.00 | 55 | 1013.1 |
| 20260503001503 | 38 | 272 | 4.0 | 14.0 | 0.00 | 0.01 | 0.00 | 55 | 1013.1 |
| 20260503001003 | 39 | 269 | 5.0 | 14.0 | 0.00 | 0.01 | 0.00 | 54 | 1013.0 |
| 20260503000503 | 39 | 266 | 4.0 | 11.0 | 0.00 | 0.01 | 0.00 | 54 | 1013.0 |